Location: Newark
(54.1978°N, 18.3264°E)
Time: 19:30:24
(UTC+00:00)

OTV 5 (USA 277) - Pass Details

Date: 28 August 2019
Orbit: 310 x 324 km, 54.5° (Epoch: 17 October)

Event Time Altitude Azimuth Distance (km) Brightness Sun altitude
Rises 18:54:00 0° 239° (WSW) 2,039 ? -9.6°
Reaches altitude 10° 18:55:59 10° 233° (SW) 1,210 ? -9.8°
Maximum altitude 18:58:35 47° 158° (SSE) 424 ? -10.1°
Enters shadow 19:00:48 13° 84° (E) 1,058 ? -10.4°
